Terminal Aerodrome Forecast
Issued by NWS Salt Lake City, UT

Home | Current Version | Previous Version | Text Only | Print | Product List | Glossary On
Versions: 1 2 3 4 5 6 7 8 9 10 11 12 13 14 15 16 17 18 19 20 21 22 23 24 25 26
000
FTUS45 KSLC 251136
TAFSLC
TAF
KSLC 251136Z 2512/2618 16008KT P6SM FEW140
     FM251900 33008KT P6SM SCT130
     FM260400 15007KT P6SM FEW140=

USA.gov is the U.S. government's official web portal to all federal, state and local government web resources and services.